Regional Weather Roundup
Issued by NWS Kansas City/Pleasant Hill, MO

Home | Current Version | Previous Version | Graphics & Text | Print | Product List | Glossary Off
Versions: 1 2 3 4 5 6 7 8 9 10 11 12 13 14 15 16 17 18 19 20 21 22 23 24 25 26 27 28 29 30 31 32 33 34 35 36 37 38 39 40 41 42 43 44 45 46 47 48 49 50

000
ASUS43 KEAX 281310
RWREAX

WEATHER ROUNDUP FOR EASTERN KANSAS AND NORTHWEST MISSOURI
NATIONAL WEATHER SERVICE KANSAS CITY/PLEASANT HILL MO
800 AM CDT FRI AUG 28 2015

KSZ040-057-103>105-MOZ028-029-037-043-281400-
...KANSAS CITY METROPOLITAN AREA...

CITY           SKY/WX    TMP DP  RH WIND       PRES   REMARKS
K.C. INTL      CLOUDY    69  63  81 S14       29.94F
K.C. DOWNTOWN  CLOUDY    71  64  78 S10       29.96R
LEES SUMMIT    CLOUDY    68  63  84 S10       29.98R
OLATHE - IXD   CLOUDY    68  64  87 S12       29.97R
OLATHE - OJC   CLOUDY    67  63  87 S12       29.96S
LAWRENCE       CLOUDY    69  64  84 S7        29.95S

$$

MOZ001>008-011>017-020>025-030>033-038>040-044>046-053-054-281400-
...NORTHERN AND CENTRAL MISSOURI...

CITY           SKY/WX    TMP DP  RH WIND       PRES   REMARKS
ST. JOSEPH     LGT RAIN  69  65  86 S10       29.92F
MOSBY          CLOUDY    66  64  94 SE3       29.97S
WARRENSBURG    CLOUDY    64  61  88 CALM      30.00S
WHITEMAN AFB   PTSUNNY   67  59  77 S13       30.00F
CLINTON          N/A     68  61  77 SE7       30.03S HAZE
SEDALIA        CLOUDY    67  59  75 S12       30.05S
WARSAW         NOT AVBL
CHILLICOTHE      N/A     67  62  84 S8        29.99S
KIRKSVILLE     CLOUDY    64  59  83 SE8       30.04S

$$

MOZ041-047>049-056>058-063>065-088>090-097-281400-
...EASTERN AND SOUTHERN MISSOURI...

CITY           SKY/WX    TMP DP  RH WIND       PRES   REMARKS
ST. LOUIS INTL PTSUNNY   67  60  78 SE5       30.12S
SPIRIT OF STL  PTSUNNY   62  60  93 CALM      30.10S
COLUMBIA       PTSUNNY   63  60  90 SE8       30.07F
JEFFERSON CITY PTSUNNY   64  59  83 E8        30.07F
ROLLA          PTSUNNY   62  58  86 S7        30.09F
OSAGE BEACH    CLOUDY    61  55  82 SE3       30.08S
SPRINGFIELD    MOSUNNY   64  58  80 S12       30.08R
BRANSON        MOSUNNY   59  57  94 CALM      30.11R
JOPLIN         PTSUNNY   68  61  78 S12       30.04R
WEST PLAINS    MOSUNNY   60  57  89 CALM      30.13R

$$

IAZ060-094-KSZ022-034>040-054-083-096-NEZ052-066-093-281400-
...KANSAS...SOUTHEAST NEBRASKA AND IOWA...

CITY           SKY/WX    TMP DP  RH WIND       PRES   REMARKS
TOPEKA         LGT RAIN  70  66  87 S10       29.93R
MANHATTAN      CLOUDY    72  67  84 SW9       29.89S
EMPORIA        CLOUDY    69  65  86 CALM      29.98R
CHANUTE        CLOUDY    68  65  90 S13       29.98S
WICHITA        CLOUDY    72  67  84 S15       29.93S
OMAHA          CLOUDY    70  67  90 S14       29.84R
LINCOLN        CLOUDY    73  66  78 SW12      29.84R
FALLS CITY     PTSUNNY   69  64  84 S15       29.88S
LAMONI         CLOUDY    65  61  87 SE8       29.96F
DES MOINES     LGT RAIN  65  61  87 SE15      29.96F

$$



USA.gov is the U.S. government's official web portal to all federal, state and local government web resources and services.